EDT,Max TemperatureF,Mean TemperatureF,Min TemperatureF,Max Dew PointF,MeanDew PointF,Min DewpointF,Max Humidity, Mean Humidity, Min Humidity, Max Sea Level PressureIn, Mean Sea Level PressureIn, Min Sea Level PressureIn, Max VisibilityMiles, Mean VisibilityMiles, Min VisibilityMiles, Max Wind SpeedMPH, Mean Wind SpeedMPH, Max Gust SpeedMPH,PrecipitationIn, CloudCover, Events, WindDirDegrees
2013-7-1,84,72,63,71,66,63,99,87,59,29.95,29.88,29.83,10,9,0,15,3,23,0.00,5,Fog-Rain,75
2013-7-2,82,72,64,72,67,64,100,91,63,30.09,30.01,29.94,10,7,0,13,2,16,0.00,7,Fog-Rain,140
2013-7-3,83,76,68,70,68,66,94,82,59,30.19,30.15,30.09,10,10,10,10,5,16,0.00,4,Rain,161
2013-7-4,81,72,65,73,68,65,99,89,70,30.23,30.18,30.13,10,10,0,8,2,,0.00,5,Rain,152
2013-7-5,83,75,67,71,69,67,99,82,62,30.21,30.18,30.15,10,10,1,12,3,,0.00,6,Rain,187
2013-7-6,87,76,67,72,69,66,99,88,55,30.20,30.17,30.10,10,9,1,12,3,23,0.00,6,Rain,181
2013-7-7,79,72,66,71,68,66,100,92,72,30.18,30.14,30.09,10,8,2,8,2,18,0.00,6,Rain,213
2013-7-8,85,76,67,73,69,67,97,79,54,30.22,30.17,30.13,10,10,10,8,2,,0.00,2,,231
2013-7-9,88,80,71,75,72,69,95,78,57,30.18,30.14,30.08,10,10,5,9,3,,0.00,2,,223
2013-7-10,88,78,69,75,72,69,99,82,59,30.10,30.02,29.94,10,10,4,13,4,22,0.00,4,Rain,212
2013-7-11,82,75,68,70,69,66,100,87,61,30.02,29.98,29.93,10,8,0,9,1,22,0.00,7,Fog-Rain,355
2013-7-12,79,70,61,67,63,60,99,80,59,30.07,30.03,29.99,10,10,2,9,3,,0.00,4,,19
2013-7-13,85,72,60,68,65,60,99,78,55,30.17,30.11,30.05,10,9,2,10,5,,0.00,3,,75
2013-7-14,88,78,68,73,69,66,92,73,54,30.29,30.22,30.15,10,10,7,14,5,20,0.00,3,,116
2013-7-15,89,77,65,72,68,65,99,73,51,30.37,30.32,30.28,10,10,4,8,3,,0.00,1,,129
2013-7-16,90,80,69,74,72,69,99,79,52,30.38,30.33,30.30,10,9,2,8,1,,0.00,1,,18
2013-7-17,88,79,70,76,73,69,100,87,64,30.36,30.30,30.23,10,8,0,12,1,20,0.00,2,Fog-Rain,253
2013-7-18,90,79,68,76,72,68,98,81,58,30.26,30.19,30.09,10,10,5,6,2,,0.00,1,,141
2013-7-19,89,80,71,75,73,68,98,85,56,30.12,30.07,30.00,10,8,0,21,2,28,0.00,2,Fog-Rain,216
2013-7-20,89,78,70,73,71,69,97,79,58,30.03,29.98,29.92,10,10,7,9,4,16,0.00,1,,227
2013-7-21,83,76,70,73,71,69,99,90,71,30.03,29.98,29.95,10,9,0,9,2,,0.00,4,Fog-Rain,210
2013-7-22,83,76,69,74,70,68,99,89,66,30.00,29.91,29.84,10,9,0,12,3,22,0.00,5,Fog-Rain,220
2013-7-23,85,78,70,71,70,68,98,80,57,29.90,29.86,29.81,10,9,4,8,4,,0.00,5,Rain,258
2013-7-24,80,72,65,71,67,62,94,83,63,29.98,29.89,29.80,10,10,7,10,3,17,0.00,5,,2
2013-7-25,77,68,59,62,59,57,99,77,52,30.11,30.04,29.98,10,9,4,9,3,,0.00,2,,27
2013-7-26,81,68,54,67,61,55,100,80,51,30.13,30.08,30.02,10,7,0,7,1,,0.00,1,Fog,255
2013-7-27,80,72,66,68,65,62,99,81,55,30.03,29.96,29.91,10,9,3,9,2,17,0.00,3,Rain,253
2013-7-28,76,68,61,66,59,53,99,75,51,30.12,30.02,29.93,10,9,3,10,4,,0.00,5,Rain,278
2013-7-29,77,66,54,61,56,51,97,72,45,30.24,30.18,30.10,10,10,10,6,1,,0.00,2,,245
2013-7-30,79,68,58,65,60,57,97,76,49,30.28,30.22,30.18,10,10,10,6,1,,0.00,1,,199
2013-7-31,72,68,64,67,65,64,99,91,81,30.19,30.10,30.00,10,9,1,7,2,,0.00,8,Rain,171